Flag for Canada Weather past 2 weeks in Québec, Quebec, Canada

Now
64 °F

Sprinkles. Overcast.


Feels Like: 64 °F
Forecast: 45 / 63 °F
Wind: 6 mph from Northeast

Location: Quebec Weather Station

Current Time: Sep 21, 2014 at 8:57:01 PM

Latest Report: Sep 21, 2014 at 8:00 PM


Visibility: 15 mi

Pressure: 29.56 "Hg

Humidity: 94%

Dew point: 63 °F

Location of QuébecLocation

Historic Weather in Québec — Graph

°F

Québec temperature yesterday

Maximum temperature yesterday: 57 °F (at 9:00 PM)
Minimum temperature yesterday: 37 °F (at 2:00 AM)
Average temperature yesterday: 48 °F

Past Weeks' High & Low Weather Summary

 TemperatureHumidityPressure
High73 °F (Sep 9, 3:00 PM)100% (Sep 11, 12:00 PM)30.42 "Hg (Sep 11, 12:00 PM)
Low28 °F (Sep 19, 5:00 AM)30% (Sep 19, 4:00 PM)29.49 "Hg (Sep 11, 4:00 PM)
Average53 °F78%30.06 "Hg
* Reported Sep 6 8:00 PM — Sep 21 8:00 PM, Québec, Weather by CustomWeather, © 2014

Note: Actual official high and low records may vary slightly from our data, if they occured in-between our weather recording intervals... More about our weather records

Advertising

Québec weather history for previous 24 hours

 ConditionsComfort  
Time TempWeatherWind HumidityBarometerVisibility
8:00 PM
Sep 21
64 °FSprinkles. Overcast.6 mph94%29.56 "Hg15 mi
7:00 PM64 °FSprinkles. More clouds than sun.6 mph94%29.58 "Hg15 mi
6:00 PM66 °FSprinkles. Broken clouds.6 mph88%29.56 "Hg15 mi
5:00 PM66 °FSprinkles. Overcast.5 mph88%29.58 "Hg15 mi
4:53 PM66 °FSprinkles. Overcast.5 mph88%29.58 "Hg15 mi
4:00 PM68 °FOvercast.8 mph83%29.59 "Hg15 mi
3:00 PM68 °FMostly cloudy.5 mph78%29.63 "Hg15 mi
2:49 PM68 °FSprinkles. Overcast.3 mph83%29.64 "Hg30 mi
2:00 PM68 °FMostly cloudy.3 mph83%29.65 "Hg30 mi
1:00 PM66 °FOvercast.No wind83%29.67 "Hg30 mi
12:00 PM66 °FOvercast.9 mph78%29.70 "Hg30 mi
11:00 AM64 °FOvercast.10 mph83%29.70 "Hg30 mi
10:00 AM64 °FOvercast.12 mph78%29.70 "Hg30 mi
9:00 AM66 °FOvercast.9 mph78%29.70 "Hg30 mi
8:00 AM64 °FPartly sunny.9 mph78%29.70 "Hg15 mi
7:00 AM63 °FOvercast.6 mph83%29.70 "Hg15 mi
6:00 AM63 °FPassing clouds.3 mph83%29.71 "Hg10 mi
5:00 AM59 °FOvercast.2 mph94%29.72 "Hg10 mi
4:00 AM59 °FOvercast.No wind94%29.74 "Hg10 mi
3:00 AM59 °FOvercast.5 mph94%29.77 "Hg10 mi
2:00 AM59 °FOvercast.3 mph94%29.80 "Hg10 mi
1:00 AM57 °FOvercast.No wind94%29.82 "Hg10 mi
12:00 AM57 °FOvercast.No wind94%29.83 "Hg10 mi
11:00 PM
Sep 20
55 °FFog.No wind100%29.84 "Hg6 mi
10:00 PM55 °FOvercast.3 mph100%29.85 "Hg15 mi
9:00 PM57 °FMostly cloudy.2 mph94%29.86 "Hg8 mi
8:00 PM55 °FSprinkles. Fog.No wind100%29.87 "Hg6 mi
Weather by CustomWeather, © 2014

See weather overviewHow to use our weather pages